FENGYUN 1C DEB, 30067

Orbit data source: Space-Track

FENGYUN 1C DEB, 30067 is space debris in SSO originally from a launch on Mon, 10 May 1999 UTC launched from the Taiyaun Space Center, China (TSC). Fengyun 1C debris stems from the Chinese weather satellite Fengyun-1C, which was intentionally destroyed by a Chinese anti-satellite missile in 2007. This event dramatically increased the amount of space debris, with thousands of trackable fragments posing hazards to satellites and human spaceflight. The Fengyun 1C debris cloud has become a focal point in discussions about space sustainability and the need for international regulations to prevent the creation of new debris.

Loading next visibility...
Identifier
30067, 1999-025PU
Orbit
SSO
Country
Flag of CNCN / PRC
Related business
Manufacturer
Unknown
Mission
Spacecraft
Bus & Motor
Unknown
Mass
Unknown
Launch date (UTC)
1999-05-10 (27 years ago)
Launch vehicle
Unknown
Launch site
Taiyaun Space Center, China (TSC)
Object type
Payload
Rocket body
Debris
Shape & HBR
Unknown shape, 0.1 m
Radar Cross Section
Medium (>0.1 m² and <1 m²)

Expand to show TLE details & history
Last TLE update: 10 hours ago

TLE from 10 hours ago
0 FENGYUN 1C DEB
1 30067U 99025PU  26238.56877698  .00001024  00000-0  27363-3 0  9999
2 30067  98.7372 137.1219 0149580 329.4611 148.9927 14.44319915 29025
Epoch: 2026-08-26T13:39Z
TLE epoch observation values (Epoch: 2026-08-26T13:39:02.331Z)
Latitude
59.61118°
Longitude
152.65324°
Altitude
846.101 km
Speed
7.387 km/s
True Right ascension
22h 08m 55s
True Declination
59° 27' 46"
Sunlit
Object was in daylight at epoch
Visualization orbit readout
Latitude
Unknown
Longitude
Unknown
Altitude
Unknown
Speed
Unknown
Apparent Right ascension
Unknown
Apparent Declination
Unknown
Sunlit
N/A
Visualization observer readout
Local Sidereal Time
14:41:18
Azimuth
Unknown
Elevation
Unknown
Doppler factor
Unknown
Orbital elements
Apogee altitude
847.881 km
Perigee altitude
634.894 km
Semi-major axis
7,119.525 km
Eccentricity
0.01496
Inclination
98.7372°
RAAN
137.1219°
Arg. of periapsis
329.4611°
True anomaly
149.86172°
Mean anomaly
148.9927°
Eccentric anomaly
149.4286°
Mean motion
3.61299 °/min
Orbital period
99.64 mins
BSTAR
0.00027363
Loading maneuver chart data...
Computing Atmospheric mass density...

Documentation

Showing up to 5 results
|